Вернуться в каталог

YAOGAN-39 01C

АктивенВоенныеVLEO
NORAD 57731·PAYLOAD·🇨🇳 China

Запущен Aug 31, 2023 с Xichang Satellite Launch Center

Loading…

Ближайшие Пролёты (ближайшие 24 часа)

TLE

СвежийSource: Space-Track

Эпоха: Sep 14, 2026, 13:58 UTC

1 57731U 23130E   26257.58239631  .00004487  00000-0  22397-3 0  9990
2 57731  34.9937 315.3083 0009702  38.0663 322.0734 15.16889984169047

Отслеживайте YAOGAN-39 01C в реальном времени с AllMySat

Download on the App Store